Weather History for YCIN - July, 2013

Change the Weather History Date:

Monday, July 1, 2013

  Actual Average Record
Temperature  
Mean Temperature 75 °F -  
Max Temperature 84 °F - - ()
Min Temperature 66 °F - - ()
Cooling Degree Days 10    
Growing Degree Days 25 (Base 50)    
Moisture  
Dew Point 42 °F    
Average Humidity 32    
Maximum Humidity 49    
Minimum Humidity 13    
Precipitation  
Precipitation 0.00 in - - ()
Sea Level Pressure  
Sea Level Pressure 30.02 in    
Wind  
Wind Speed 9 mph ()    
Max Wind Speed 13 mph    
Max Gust Speed -    
T = Trace of Precipitation, MM = Missing Value Source: Averaged Metar Reports

Daily Weather History Graph

Daily Weather History Graph

Search for Another Location

Airport or City:

Trip Planner

Search our weather history database for the weather conditions in past years. The results will help you decide how hot, cold, wet, or windy it might be!

Date:

Astronomy

Jul. 01, 2013 Rise Set
Actual Time 6:15 AM AWST 5:21 PM AWST
Civil Twilight 5:52 AM AWST 5:44 PM AWST
Nautical Twilight 5:25 AM AWST 6:12 PM AWST
Astronomical Twilight 4:58 AM AWST 6:38 PM AWST
Moon 12:09 AM AWST (7/1) 12:07 PM AWST (7/1)
Length of Visible Light 11h 52m
Length of Day
11h 05m
Last Quarter, 40% of the Moon is Illuminated
Jul 1
Last Quarter
Jul 8
New
Jul 16
First Quarter
Jul 23
Full
Jul 30
Last Quarter

Hourly Weather History & Observations

Time (AWST) Temp. Dew Point Humidity Pressure Visibility Wind Dir Wind Speed Gust Speed Precip Events Conditions
12:00 AM 69 °F 45 °F 30% 30.07 in - SE 11.5 mph - -  
12:00 AM 69.8 °F 44.6 °F 40% 30.06 in - SE 11.5 mph - N/A   Unknown
1:00 AM 68.0 °F 46.4 °F 46% 30.06 in - ESE 9.2 mph - N/A   Unknown
2:00 AM 68.0 °F 46.4 °F 46% 30.04 in - SE 11.5 mph - N/A   Unknown
3:00 AM 67 °F 45 °F 34% 30.04 in - SE 9.2 mph - -  
3:00 AM 68.0 °F 44.6 °F 43% 30.04 in - SE 9.2 mph - N/A   Unknown
4:00 AM 66.2 °F 46.4 °F 49% 30.04 in - SE 10.4 mph - N/A   Unknown
5:00 AM 68.0 °F 44.6 °F 43% 30.04 in - SE 9.2 mph - N/A   Unknown
6:00 AM 68.0 °F 44.6 °F 43% 30.04 in - SE 10.4 mph - N/A   Unknown
7:00 AM 68.0 °F 44.6 °F 43% 30.06 in - ESE 10.4 mph - N/A   Unknown
8:00 AM 68.0 °F 44.6 °F 43% 30.06 in - ESE 10.4 mph - N/A   Unknown
9:00 AM 73 °F 43 °F 23% 30.06 in - ESE 11.5 mph - -  
9:00 AM 73.4 °F 42.8 °F 33% 30.06 in - ESE 11.5 mph - N/A   Unknown
10:00 AM 77.0 °F 44.6 °F 32% 30.04 in - ESE 12.7 mph - N/A   Unknown
11:00 AM 78.8 °F 42.8 °F 28% 30.04 in - ESE 11.5 mph - N/A   Unknown
12:00 PM 80 °F 43 °F 17% 30.00 in - SE 10.4 mph - -  
12:00 PM 78.8 °F 42.8 °F 28% 30.01 in - SE 10.4 mph - N/A   Unknown
1:00 PM 80.6 °F 41.0 °F 24% 29.98 in - SE 11.5 mph - N/A   Unknown
2:00 PM 82.4 °F 41.0 °F 23% 29.95 in - East 11.5 mph - N/A   Unknown
3:00 PM 83 °F 40 °F 13% 29.94 in - ESE 10.4 mph - -  
3:00 PM 82.4 °F 41.0 °F 23% 29.95 in - ESE 10.4 mph - N/A   Unknown
4:00 PM 82.4 °F 41.0 °F 23% 29.95 in - ESE 9.2 mph - N/A   Unknown
5:00 PM 78.8 °F 39.2 °F 24% 29.98 in - ESE 8.1 mph - N/A   Unknown
6:00 PM 72 °F 39 °F 20% 30.00 in - SE 4.6 mph - -  
6:00 PM 71.6 °F 39.2 °F 31% 30.01 in - SE 4.6 mph - N/A   Unknown
7:00 PM 68.0 °F 41.0 °F 37% 30.01 in - SE 5.8 mph - N/A   Unknown
8:00 PM 68.0 °F 41.0 °F 37% 30.04 in - SSE 6.9 mph - N/A   Unknown
9:00 PM 70 °F 38 °F 20% 30.04 in - SE 8.1 mph - -  
9:00 PM 69.8 °F 37.4 °F 31% 30.04 in - SE 8.1 mph - N/A   Unknown
10:00 PM 69.8 °F 35.6 °F 28% 30.04 in - SE 9.2 mph - N/A   Unknown
11:00 PM 69.8 °F 35.6 °F 28% 30.04 in - SE 8.1 mph - N/A   Unknown